Voltar ao catálogo

ICEYE-X45

AtivoCiênciaSSO
NORAD 62705·PAYLOAD·🇺🇸 United States

Lançado Jan 14, 2025 de Vandenberg Space Force Base

Loading…

Próximas Passagens (próximas 24 horas)

TLE

AtualizadoSource: Space-Track

Época: Sep 13, 2026, 19:14 UTC

1 62705U 25009DA  26256.80187375  .00004576  00000-0  36483-3 0  9995
2 62705  97.8555 344.3049 0000994  93.8939 266.2398 15.00839223 90975

Acompanhe ICEYE-X45 em tempo real com AllMySat

Download on the App Store